Christchurch, New Zealand

2:12 AM NZDT on November 23, 2017 (GMT +1300)
Christchurch International

Weather History for NZCH - July, 2013

Change the Weather History Date:

Saturday, July 27, 2013

  Actual Average Record
Temperature  
Mean Temperature 46 °F -  
Max Temperature 60 °F 51 °F 66 °F (2000)
Min Temperature 33 °F 34 °F 26 °F (1997)
Degree Days  
Heating Degree Days 18    
Moisture  
Dew Point 38 °F    
Average Humidity 81    
Maximum Humidity 100    
Minimum Humidity 42    
Precipitation  
Precipitation 0.00 in - - ()
Sea Level Pressure  
Sea Level Pressure 30.17 in    
Wind  
Wind Speed 2 mph ()    
Max Wind Speed 6 mph    
Max Gust Speed -    
Averages and records for this station are not official NWS values.
T = Trace of Precipitation, MM = Missing Value Source: Averaged Metar Reports

Daily Weather History Graph

Daily Weather History Graph

Search for Another Location

Airport or City:

Trip Planner

Search our weather history database for the weather conditions in past years. The results will help you decide how hot, cold, wet, or windy it might be!

Date:

Astronomy

Jul. 27, 2013 Rise Set
Actual Time 7:48 AM NZST 5:24 PM NZST
Civil Twilight 7:17 AM NZST 5:55 PM NZST
Nautical Twilight 6:42 AM NZST 6:30 PM NZST
Astronomical Twilight 6:08 AM NZST 7:04 PM NZST
Moon 10:53 PM NZST (7/27) 9:53 AM NZST (7/27)
Length of Visible Light 10h 38m
Length of Day
9h 35m
Waning Gibbous, 77% of the Moon is Illuminated
Jul 27
Waning Gibbous
Jul 30
Last Quarter
Aug 7
New
Aug 14
First Quarter
Aug 21
Full

Hourly Weather History & Observations

Time (NZST) Temp. Windchill Dew Point Humidity Pressure Visibility Wind Dir Wind Speed Gust Speed Precip Events Conditions
12:00 AM 39.2 °F - 37.4 °F 93% 30.09 in - NW 1.2 mph - N/A   Clear
1:00 AM 37.4 °F - 33.8 °F 87% 30.09 in - West 1.2 mph - N/A   Clear
2:00 AM 37.4 °F - 35.6 °F 93% 30.09 in - NW 2.3 mph - N/A   Clear
3:00 AM 35.6 °F 32.8 °F 35.6 °F 100% 30.09 in - NW 3.5 mph - N/A   Clear
4:00 AM 33.8 °F - 32.0 °F 93% 30.09 in - NW 2.3 mph - N/A   Clear
5:00 AM 37.4 °F - 35.6 °F 93% 30.12 in - NNW 2.3 mph - N/A   Clear
6:00 AM 35.6 °F 32.8 °F 35.6 °F 100% 30.12 in - WNW 3.5 mph - N/A   Clear
7:00 AM 37.4 °F - 35.6 °F 93% 30.15 in - West 2.3 mph - N/A   Clear
8:00 AM 35.6 °F - 33.8 °F 93% 30.15 in - NW 1.2 mph - N/A   Clear
9:00 AM 35.6 °F - 35.6 °F 100% 30.18 in - West 1.2 mph - N/A   Clear
10:00 AM 42.8 °F - 42.8 °F 100% 30.18 in - WNW 2.3 mph - N/A   Clear
11:00 AM 48.2 °F - 46.4 °F 93% 30.21 in - Calm Calm - N/A   Clear
12:00 PM 51.8 °F - 46.4 °F 82% 30.21 in - North 1.2 mph - N/A   Clear
1:00 PM 60.8 °F - 41.0 °F 48% 30.21 in - North 2.3 mph - N/A   Clear
2:00 PM 60.8 °F - 37.4 °F 42% 30.18 in - ENE 2.3 mph - N/A   Clear
3:00 PM 60.8 °F - 42.8 °F 52% 30.18 in - NE 5.8 mph - N/A   Clear
4:00 PM 57.2 °F - 44.6 °F 63% 30.18 in - ENE 5.8 mph - N/A   Clear
5:00 PM 55.4 °F - 35.6 °F 47% 30.18 in - East 4.6 mph - N/A   Clear
6:00 PM 48.2 °F - 37.4 °F 66% 30.18 in - East 3.5 mph - N/A   Clear
7:00 PM 48.2 °F - 39.2 °F 71% 30.21 in - ENE 3.5 mph - N/A   Clear
8:00 PM 46.4 °F 45.2 °F 37.4 °F 71% 30.21 in - NNE 3.5 mph - N/A   Clear
9:00 PM 42.8 °F - 37.4 °F 81% 30.24 in - North 2.3 mph - N/A   Clear
10:00 PM 41.0 °F - 37.4 °F 87% 30.24 in - WNW 1.2 mph - N/A   Clear
11:00 PM 37.4 °F - 35.6 °F 93% 30.24 in - SSW 2.3 mph - N/A   Clear